Regional Weather Roundup
Issued by NWS Little Rock, AR

Home | Current Version | Previous Version | Graphics & Text | Print | Product List | Glossary On
Versions: 1 2 3 4 5 6 7 8 9 10 11 12 13 14 15 16 17 18 19 20 21 22 23 24 25 26 27 28 29 30 31 32 33 34 35 36 37 38 39 40 41 42 43 44 45 46 47 48 49 50
000
ASUS44 KLZK 250805
RWRLZK

WEATHER ROUNDUP FOR ARKANSAS
NATIONAL WEATHER SERVICE LITTLE ROCK AR
300 AM CDT FRI JUL 25 2014

NOTE: "FAIR" INDICATES FEW OR NO CLOUDS BELOW 12,000 FEET WITH NO
SIGNIFICANT WEATHER AND/OR OBSTRUCTIONS TO VISIBILITY.

ARZ001-003-010-029-250900-
NORTHWEST ARKANSAS

CITY           SKY/WX    TMP DP  RH WIND       PRES   REMARKS
FAYETTEVILLE   CLEAR     66  66 100 NE3       30.03F
FORT SMITH     MOCLDY    73  71  93 NE5       30.01F
HARRISON       CLEAR     65  64  97 SE6       30.05F
BENTONVILLE    CLEAR     70  64  83 SE6       30.04S
ROGERS         CLEAR     69  66  90 SE5       30.05R
SILOAM SPGS    CLEAR     70  63  78 S9        30.02F
HIGHFILL       CLEAR     69  68  96 S5        30.02F
$$

ARZ004-005-016-250900-
NORTH CENTRAL ARKANSAS

CITY           SKY/WX    TMP DP  RH WIND       PRES   REMARKS
BATESVILLE     CLEAR     61  61 100 CALM      30.04S
FLIPPIN        CLEAR     63  61  94 CALM      30.05S
MTN HOME       CLEAR     63  60  90 S5        30.03F
$$

ARZ040-041-250900-
WEST CENTRAL ARKANSAS

CITY           SKY/WX    TMP DP  RH WIND       PRES   REMARKS
MENA           CLEAR     73  72  94 CALM      30.06S
MOUNT IDA      CLOUDY    73  70  90 CALM      30.03S
$$

ARZ009-017-025-026-028-250900-
NORTHEAST ARKANSAS

CITY           SKY/WX    TMP DP  RH WIND       PRES   REMARKS
CORNING        FAIR      63  63 100 N6        30.05R
JONESBORO      CLEAR     62  60  93 CALM      30.03R
NEWPORT        CLEAR     64  63  97 N7        30.05R
WALNUT RIDGE   CLEAR     66  61  82 CALM      30.03R
BLYTHEVILLE    CLEAR     63  63 100 N3        30.03R
$$

ARZ022-023-033-042-044-250900-
CENTRAL ARKANSAS

CITY           SKY/WX    TMP DP  RH WIND       PRES   REMARKS
LITTLE ROCK    CLEAR     65  62  90 SW3       30.03F
N LITTLE ROCK    N/A     69  63  82 S3        30.03F
SEARCY         CLEAR     62  62 100 CALM      30.04F
HOT SPRINGS    MOCLDY    70  65  84 NE3       30.05S
RUSSELLVILLE   CLEAR     69  66  90 CALM      30.03F
CLINTON        FAIR      64  64 100 CALM      30.06S
$$

ARZ036-250900-
EAST ARKANSAS

CITY           SKY/WX    TMP DP  RH WIND       PRES   REMARKS
WEST MEMPHIS   CLEAR     63  63 100 CALM      30.01S
$$

ARZ050-053-066-070-073-250900-
SOUTHWEST ARKANSAS

CITY           SKY/WX    TMP DP  RH WIND       PRES   REMARKS
ARKADELPHIA    PTSUNNY   73  71  93 CALM      30.04S
CAMDEN         CLEAR     68  64  88 CALM      30.02F FOG
TEXARKANA      PTCLDY    71  70  96 CALM      30.04R FOG
EL DORADO      MOCLDY    71  69  93 CALM      30.03S
DE QUEEN       CLOUDY    72  72 100 CALM      30.03R FOG
$$

ARZ056-057-069-250900-
SOUTHEAST ARKANSAS

CITY           SKY/WX    TMP DP  RH WIND       PRES   REMARKS
PINE BLUFF     CLEAR     63  60  90 CALM      30.02F
STUTTGART      CLEAR     64  59  82 SW5       30.02F
MONTICELLO     CLEAR     65  62  90 CALM      30.02F

$$




USA.gov is the U.S. government's official web portal to all federal, state and local government web resources and services.